This is the latest recevied weather packets stored in our database for station/object JF7BTK-10. If no packets are shown the sender has not sent any weather packets the latest 10 day(s).
| Time | Temp. | Humidity | Pressure | Rain* | Wind** | Luminosity | Snow |
|---|---|---|---|---|---|---|---|
| 1788064987 | 22.78° C | 70% | 1005.7 hPa | 0 mm | - | - | - |
| 1788064087 | 22.78° C | 70% | 1005.6 hPa | 0 mm | - | - | - |
| 1788063650 | 22.78° C | 70% | 1005.7 hPa | 0 mm | - | - | - |
| 1788063187 | 22.78° C | 70% | 1005.6 hPa | 0 mm | - | - | - |
| 1788063050 | 22.78° C | 70% | 1005.7 hPa | 0 mm | - | - | - |
| 1788062750 | 23.33° C | 71% | 1005.7 hPa | 0 mm | - | - | - |
| 1788062287 | 22.78° C | 70% | 1005.8 hPa | 0 mm | - | - | - |
| 1788062150 | 23.33° C | 70% | 1005.8 hPa | 0 mm | - | - | - |
| 1788061850 | 23.33° C | 69% | 1006 hPa | 0 mm | - | - | - |
| 1788061552 | 23.33° C | 69% | 1006 hPa | 0 mm | - | - | - |
| 1788061388 | 23.89° C | 69% | 1006 hPa | 0 mm | - | - | - |
| 1788061257 | 23.33° C | 69% | 1006 hPa | 0 mm | - | - | - |
| 1788060951 | 23.33° C | 69% | 1006.1 hPa | 0 mm | - | - | - |
| 1788060488 | 23.33° C | 68% | 1006.1 hPa | 0 mm | - | - | - |
| 1788059588 | 23.89° C | 68% | 1006 hPa | 0 mm | - | - | - |
| 1788058688 | 24.44° C | 68% | 1005.4 hPa | 0 mm | - | - | - |
| 1788057788 | 23.33° C | 69% | 1005.5 hPa | 0 mm | - | - | - |
| 1788056888 | 23.33° C | 71% | 1005.3 hPa | 0 mm | - | - | - |
| 1788055987 | 22.78° C | 71% | 1005.4 hPa | 0 mm | - | - | - |
| 1788055087 | 22.78° C | 72% | 1005.7 hPa | 0 mm | - | - | - |
| 1788054188 | 22.22° C | 76% | 1005.8 hPa | 0 mm | - | - | - |
| 1788053288 | 22.22° C | 77% | 1005.7 hPa | 0 mm | - | - | - |
| 1788052387 | 21.67° C | 78% | 1005.8 hPa | 0 mm | - | - | - |
| 1788051487 | 21.67° C | 80% | 1005.7 hPa | 0 mm | - | - | - |
| 1788050597 | 21.67° C | 81% | 1005.7 hPa | 0 mm | - | - | - |
* Rain latest hour (hover to see other rain measurements)
** Current wind speed in m/s (hover to see current wind gust speed)